N2GW KBHB-KBED

Flight info

Callsign N2GW
Flight time N/A
Altitude 26000
Route ENE LWRNC
Aircraft SF50/L-SDGRWY/L

Departure

Time 2026-05-09 02:52
Airport Hancock County-Bar Harbor Airport (KBHB)

Arrival

Time N/A
Airport Laurence G Hanscom Field (KBED)
Time Latitude Longitude Altitude Speed Heading
2026-05-09 02:15 44.44645 -68.36183 83 ft 0 kts 110°
2026-05-09 02:33 44.44638 -68.36182 86 ft 4 kts 262°
2026-05-09 02:33 44.44639 -68.36198 85 ft 3 kts 306°
2026-05-09 02:33 44.44679 -68.36211 83 ft 9 kts 314°
2026-05-09 02:34 44.44682 -68.36316 86 ft 14 kts 269°
2026-05-09 02:34 44.44629 -68.36408 83 ft 13 kts 204°
2026-05-09 02:34 44.44538 -68.36466 83 ft 15 kts 204°
2026-05-09 02:34 44.44439 -68.36527 84 ft 15 kts 205°
2026-05-09 02:35 44.44355 -68.36599 84 ft 12 kts 253°
2026-05-09 02:35 44.44354 -68.36611 84 ft 0 kts 279°
2026-05-09 02:43 44.44354 -68.36612 84 ft 0 kts 278°
2026-05-09 02:51 44.44355 -68.36616 86 ft 4 kts 284°
2026-05-09 02:51 44.44405 -68.36709 87 ft 17 kts 348°
2026-05-09 02:52 44.44617 -68.36583 82 ft 69 kts 27°
2026-05-09 02:52 44.45215 -68.36199 364 ft 104 kts 27°
2026-05-09 02:52 44.45858 -68.35684 967 ft 110 kts 32°
2026-05-09 02:52 44.46526 -68.35194 1595 ft 112 kts
2026-05-09 02:53 44.47321 -68.35594 2097 ft 136 kts 309°
2026-05-09 02:53 44.47593 -68.36937 2686 ft 163 kts 266°
2026-05-09 02:53 44.47465 -68.38578 3038 ft 164 kts 267°
2026-05-09 02:53 44.47400 -68.40135 3029 ft 156 kts 269°
2026-05-09 02:54 44.47337 -68.41619 3032 ft 149 kts 268°
2026-05-09 02:54 44.47168 -68.43130 3642 ft 167 kts 256°
2026-05-09 02:54 44.46575 -68.44518 4609 ft 173 kts 237°
2026-05-09 02:54 44.45840 -68.45863 5524 ft 176 kts 237°
2026-05-09 02:55 44.45134 -68.47174 6613 ft 161 kts 240°
2026-05-09 02:55 44.44533 -68.48526 7303 ft 167 kts 243°
2026-05-09 02:55 44.43912 -68.49923 8033 ft 170 kts 241°
2026-05-09 02:55 44.43270 -68.51312 8799 ft 171 kts 242°
2026-05-09 02:56 44.42617 -68.52724 9550 ft 174 kts 242°
2026-05-09 02:56 44.41956 -68.54157 10249 ft 176 kts 241°
2026-05-09 02:56 44.41293 -68.55589 10972 ft 175 kts 242°
2026-05-09 02:56 44.40636 -68.57010 11643 ft 177 kts 242°
2026-05-09 02:57 44.39964 -68.58462 12318 ft 179 kts 242°
2026-05-09 02:57 44.39284 -68.59923 12977 ft 180 kts 243°
2026-05-09 02:57 44.38600 -68.61400 13621 ft 182 kts 243°
2026-05-09 02:57 44.37907 -68.62890 14190 ft 183 kts 243°
2026-05-09 02:58 44.37208 -68.64394 14747 ft 185 kts 242°
2026-05-09 02:58 44.36503 -68.65911 15306 ft 187 kts 242°
2026-05-09 02:58 44.35789 -68.67447 15846 ft 189 kts 242°
2026-05-09 02:58 44.35069 -68.68998 16373 ft 191 kts 242°
2026-05-09 02:59 44.34341 -68.70564 16903 ft 193 kts 242°
2026-05-09 02:59 44.33609 -68.72131 17461 ft 193 kts 241°
2026-05-09 02:59 44.32876 -68.73709 17969 ft 195 kts 242°
2026-05-09 02:59 44.32133 -68.75304 18416 ft 197 kts 241°
2026-05-09 03:00 44.31384 -68.76909 18853 ft 198 kts 241°
2026-05-09 03:00 44.30630 -68.78524 19274 ft 199 kts 240°
2026-05-09 03:00 44.29869 -68.80152 19690 ft 201 kts 240°
2026-05-09 03:00 44.29103 -68.81791 20099 ft 202 kts 240°
2026-05-09 03:01 44.28581 -68.82907 20373 ft 204 kts 240°
2026-05-09 03:01 44.27815 -68.84545 20770 ft 205 kts 240°
2026-05-09 03:01 44.27029 -68.86230 21209 ft 204 kts 240°
2026-05-09 03:01 44.26262 -68.87866 21642 ft 204 kts 240°
2026-05-09 03:02 44.25478 -68.89543 22078 ft 203 kts 240°
2026-05-09 03:02 44.24706 -68.91192 22516 ft 203 kts 239°
2026-05-09 03:02 44.23935 -68.92836 22958 ft 202 kts 239°
2026-05-09 03:02 44.23166 -68.94478 23395 ft 202 kts 239°
2026-05-09 03:03 44.22406 -68.96093 23770 ft 201 kts 239°
2026-05-09 03:03 44.21641 -68.97719 24158 ft 200 kts 239°
2026-05-09 03:03 44.20884 -68.99333 24546 ft 198 kts 239°